チェルヌイフ彗星

101P/Chernykh (2020)

English version
Home page
Updated on March 27, 2022

---------------------------------------------------------------------

・ プロフィール

・ 写真集

・ 軌道要素

Epoch 2022 Jan. 21.0 TT = JDT 2459600.5
T 2020 Jan. 12.76083 TT                                 Rudenko
q   2.3444208            (2000.0)            P               Q
n   0.07046167     Peri.  277.71789     +0.82615800     -0.55787280
a   5.8054258      Node   116.22325     +0.54541901     +0.75666104
e   0.5961673      Incl.    5.05217     +0.14135439     +0.34094282
P  14.0
From 1901 observations 1977 Aug. 19-2022 Feb. 10, mean residual 0".8.

・ 星図

・ 光度変化

        m1 = -4.5 + 5 logΔ + 50   log r           [ ,0]  (              〜2020年 1月12日)
        m1 =  9.6 + 5 logΔ + 11.0 log r(t - 100)  [0, ]  (2020年 1月12日〜              )

---------------------------------------------------------------------

軌道要素はM.P.E.C. 2022-C234に掲載されたものです。
星図はステラナビゲータ Ver.10 (アストロアーツ) で作成したものです。
光度グラフはComet for Windowsで作成したものです。

---------------------------------------------------------------------

Copyright(C) Seiichi Yoshida (comet@aerith.net). All rights reserved.